Flight Track Log - Related Links

Times and Time Zones

All times are in EDT time to prevent confusion due to time zone crossing. See the TRS928 flight status page for this flight to view local times or setup timezone preferences in your user account.

Time Position Orientation Groundspeed Altitude Reporting Facility
EDT Latitude Longitude Course Direction KTS MPH feet Rate Location/Type
Mon 09:53:11 AM 33.6333 -84.3833 132° Southeast 192 221 2,200  Level Atlanta TRACON
Mon 09:54:17 AM 33.5833 -84.3167 132° Southeast 270 311 4,100 1,952 Climbing Atlanta TRACON
Mon 09:55:17 AM 33.5333 -84.2500 132° Southeast 284 327 6,300 2,316 Climbing Atlanta TRACON
Mon 09:56:11 AM 33.4667 -84.2167 157° South 288 331 8,500 1,682 Climbing Atlanta TRACON
Mon 09:57:29 AM 33.3683 -84.1583 154° Southeast 304 350 10,000 1,478 Climbing Atlanta Center
Mon 09:58:29 AM 33.2892 -84.1058 151° Southeast 317 365 11,900 2,350 Climbing Atlanta Center
Mon 09:59:29 AM 33.2056 -84.0586 155° Southeast 322 371 14,700 5,550 Climbing Atlanta Center
Mon 10:00:29 AM 33.1306 -84.0117 152° Southeast 316 364 23,000 2,500 Climbing Atlanta Center
Mon 10:01:29 AM 33.0700 -83.9694 150° Southeast 311 358 19,700 -900 Descending Atlanta Center
Mon 10:02:29 AM 32.9906 -83.9000 144° Southeast 316 364 21,200 1,100 Climbing Atlanta Center
Mon 10:03:29 AM 32.9092 -83.8333 145° Southeast 334 384 21,900 650 Climbing Atlanta Center
Mon 10:04:29 AM 32.8297 -83.7644 144° Southeast 341 392 22,500 400 Climbing Atlanta Center
Mon 10:05:29 AM 32.7500 -83.6981 145° Southeast 351 404 22,700 250 Climbing Atlanta Center
Mon 10:06:29 AM 32.6664 -83.6292 145° Southeast 356 410 23,000 150 Climbing Atlanta Center
Mon 10:07:29 AM 32.5700 -83.5558 147° Southeast 383 441 23,000  Level Atlanta Center
Mon 10:08:29 AM 32.4697 -83.4800 147° Southeast 406 467 23,000  Level Atlanta Center
Mon 10:10:38 AM 32.2453 -83.3028 146° Southeast 443 510 23,000  Level Jacksonville Center
Mon 10:11:38 AM 32.1514 -83.2289 146° Southeast 436 502 23,000  Level Jacksonville Center
Mon 10:12:38 AM 32.0514 -83.1547 148° Southeast 423 487 23,000  Level Jacksonville Center
Mon 10:13:38 AM 31.9556 -83.0811 147° Southeast 423 487 23,000  Level Jacksonville Center
Mon 10:14:38 AM 31.8575 -83.0075 147° Southeast 418 481 23,000 -200 Level Jacksonville Center
Mon 10:15:38 AM 31.7614 -82.9342 147° Southeast 413 475 22,600 -500 Descending Jacksonville Center
Mon 10:16:38 AM 31.6781 -82.8536 141° Southeast 402 463 22,000 -300 Descending Jacksonville Center
Mon 10:17:38 AM 31.5964 -82.7706 139° Southeast 395 455 22,000  Level Jacksonville Center
Mon 10:18:38 AM 31.5108 -82.6856 140° Southeast 395 455 22,000 -200 Level Jacksonville Center
Mon 10:19:38 AM 31.4272 -82.6028 140° Southeast 395 455 21,600 -1,150 Descending Jacksonville Center
Mon 10:20:38 AM 31.3392 -82.5325 146° Southeast 395 455 19,700 -1,850 Descending Jacksonville Center
Mon 10:21:38 AM 31.2556 -82.4650 145° Southeast 388 447 17,900 -1,800 Descending Jacksonville Center
Mon 10:22:38 AM 31.1800 -82.3947 141° Southeast 367 422 16,100 -1,817 Descending Jacksonville Center
Mon 10:23:27 AM 31.1194 -82.3442 144° Southeast 340 391 14,600 -1,800 Descending Jacksonville Center
Mon 10:23:38 AM 31.1025 -82.3322 149° Southeast 351 404 14,300 -1,690 Descending Jacksonville Center
Mon 10:24:38 AM 31.0292 -82.2694 144° Southeast 336 387 12,600 -1,552 Descending Jacksonville Center
Mon 10:25:34 AM 30.9642 -82.2167 145° Southeast 298 343 11,300 -1,487 Descending Jacksonville Center
Mon 10:26:35 AM 30.9075 -82.1589 139° Southeast 274 315 9,700 -1,839 Descending Jacksonville Center
Mon 10:27:38 AM 30.8444 -82.0942 139° Southeast 280 322 7,500 -1,914 Descending Jacksonville Center
Mon 10:28:31 AM 30.7961 -82.0414 137° Southeast 281 323 6,000 -1,684 Descending Jacksonville Center
Mon 10:29:32 AM 30.7414 -81.9836 138° Southeast 271 312 4,300 -1,525 Descending Jacksonville Center
Mon 10:30:33 AM 30.6825 -81.9192 137° Southeast 258 297 2,900 -952 Descending Jacksonville Center
Mon 10:31:38 AM 30.6342 -81.8714 140° Southeast 245 282 2,300 -517 Descending Jacksonville Center
Mon 10:32:29 AM 30.5942 -81.8428 148° Southeast 194 223 1,900 -321 Descending Jacksonville Center
Mon 10:33:30 AM 30.5583 -81.7950 131° Southeast 201 231 1,700 -393 Descending Jacksonville Center
Mon 10:34:31 AM 30.5244 -81.7519 132° Southeast 149 171 1,100 -627 Descending Jacksonville Center
Mon 10:35:44 AM 30.4969 -81.7136 130° Southeast 132 152 300 -658 Descending Jacksonville Center
Mon 10:37:00 AM 30.4833 -81.6833 115° Southeast  Level FlightAware Approximate
Mon 10:44:00 AM 30.4941 -81.6878 115° Southeast  Level Estimated

Login

Don't have an account? Register now (free) for customized features, flight alerts, and more!